Regional Weather Roundup
Issued by NWS

Home | Current Version | Previous Version | Text Only | Print | Product List | Glossary On
Versions: 1 2 3 4 5 6 7 8 9 10 11 12 13 14 15 16 17 18 19 20 21 22 23 24 25 26 27 28 29 30 31 32 33 34 35 36 37 38 39 40 41 42 43 44 45 46 47 48 49 50
935
ASUS42 KKEY 192010
RWRKEY

FLORIDA REGIONAL WEATHER ROUNDUP FOR THE FLORIDA KEYS
NATIONAL WEATHER SERVICE KEY WEST FLORIDA
300 PM EST THU JAN 19 2017

...SOUTH FLORIDA AND THE KEYS...

CITY           SKY/WX    TMP DP  RH WIND       PRES   REMARKS
FORT MYERS     MOSUNNY   80  60  50 VRB5      29.98F
SW REGIONAL AP PTSUNNY   79  60  52 CALM      29.99F
NAPLES         SUNNY     78  60  53 SW12      29.99F
MIAMI          MOSUNNY   82  62  50 SE10      29.99F
WEST KENDALL   MOSUNNY   82  62  50 SE12      29.99F
HOMESTEAD      PTSUNNY   78  66  68 SE9       29.99F
MARATHON       SUNNY     81  65  58 SE5       30.00F
BOCA CHICA NAS MOSUNNY   78  61  55 SE10      30.00F
KEY WEST INTL  SUNNY     79  62  56 SE9       30.00F

...INTERNATIONAL WEATHER...

CITY           SKY/WX    TMP DP  RH WIND       PRES   REMARKS
NASSAU BAHAMAS MOSUNNY   75  63  64 NW3       30.00F
CANCUN MEXICO  MOSUNNY   82  68  61 SE20      29.93F
COZUMEL MEXICO PTSUNNY   81  68  65 SE12      29.92F

ADJACENT COASTAL WATERS...

STATION/POSITION TIME  SKY/WX   TEMP    WIND        PRES    WAVE
                                AIR SEA DIR/SP/G            HT/PER
                 (UTC)          (F)     (DEG/KT/KT) (MB)    (FT/S)
PULASKI SHOAL LI 2000            74     120/  8/  9 1015.7F
SAND KEY         1950            75     150/  9/ 11 1016.5F
LONG KEY         1900            74 74   30/  3/  4 1016.7F
MOLASSES REEF    1900            74 77   10/  2/  3 1016.7
FOWEY ROCKS      1900            75 76   CALM  /  1 1016.9F

$$




USA.gov is the U.S. government's official web portal to all federal, state and local government web resources and services.